Regional Weather Roundup
Issued by NWS

Home | Current Version | Previous Version | Text Only | Print | Product List | Glossary On
Versions: 1 2 3 4 5 6 7 8 9 10 11 12 13 14 15 16 17 18 19 20 21 22 23 24 25 26 27 28 29 30 31 32 33 34 35 36 37 38 39 40 41 42 43 44 45 46 47 48 49 50
701
ASUS44 KBMX 052210
RWRAL

ALABAMA REGIONAL WEATHER ROUNDUP
NATIONAL WEATHER SERVICE BIRMINGHAM AL
400 PM CST FRI FEB 05 2016

NOTE: "FAIR" INDICATES FEW OR NO CLOUDS BELOW 12,000 FEET
WITH NO SIGNIFICANT WEATHER AND/OR OBSTRUCTIONS TO VISIBILITY.

THE REMARK "TC" DENOTES TEMPERATURE IN DEGREES CELSIUS.

ALZ001>011-014-016>018-020-052300-
NORTH ALABAMA

CITY           SKY/WX    TMP DP  RH WIND       PRES   REMARKS
MUSCLE SHOALS  SUNNY     49  19  30 S6        30.41F
HUNTSVILLE     MOSUNNY   50  16  25 NE6       30.39F
DECATUR        SUNNY     47  21  35 NW6       30.40F
HALEYVILLE     FAIR      48  16  27 NE7       30.40F
GADSDEN        SUNNY     49  17  28 N7        30.38F
$$

ALZ012-013-022-023-030>036-040>044-052300-
WEST CENTRAL ALABAMA

CITY           SKY/WX    TMP DP  RH WIND       PRES   REMARKS
TUSCALOOSA     SUNNY     52  13  21 N5        30.40S
$$

ALZ015-024>027-033>036-040>044-052300-
CENTRAL ALABAMA

CITY           SKY/WX    TMP DP  RH WIND       PRES   REMARKS
BIRMINGHAM     SUNNY     50  15  24 N9        30.39F
MONTGOMERY     SUNNY     53  15  22 N10       30.37F
SHELBY CO ARPT SUNNY     51  15  23 NW7       30.37F
MAXWELL AFB    SUNNY     52  18  25 N9        30.36S
GREENVILLE     NOT AVBL
$$

ALZ019-021-028-029-037-038-045>048-052300-
EAST CENTRAL ALABAMA

CITY           SKY/WX    TMP DP  RH WIND       PRES   REMARKS
ANNISTON       SUNNY     50  12  21 VRB7      30.38S
ALEXANDER CITY SUNNY     50  23  34 N13       30.35S
AUBURN         SUNNY     50  14  23 N10       30.35S
$$

ALZ051>064-052300-
SOUTHWEST ALABAMA

CITY           SKY/WX    TMP DP  RH WIND       PRES   REMARKS
MOBILE         SUNNY     54  21  27 N12       30.38S
BROOKLEY FIELD SUNNY     54  21  27 NE10      30.39F
EVERGREEN      SUNNY     54  17  23 N10G17    30.37R
$$

ALZ049-050-065>069-052300-
SOUTHEAST ALABAMA

CITY           SKY/WX    TMP DP  RH WIND       PRES   REMARKS
DOTHAN         SUNNY     53  18  25 NE9       30.36R
OZARK          SUNNY     54  18  24 N12       30.33R
TROY           SUNNY     53  17  24 N7        30.36R
EUFAULA        FAIR      55  16  21 VRB3      30.33R
$$




USA.gov is the U.S. government's official web portal to all federal, state and local government web resources and services.